TimeCDT,TemperatureF,Dew PointF,Humidity,Sea Level PressureIn,VisibilityMPH,Wind Direction,Wind SpeedMPH,Gust SpeedMPH,PrecipitationIn,Events,Conditions,WindDirDegrees,DateUTC
12:53 AM,60.1,34.0,38,29.78,10.0,NNW,18.4,25.3,N/A,,Partly Cloudy,340,2012-10-14 05:53:00
1:53 AM,59.0,32.0,36,29.81,10.0,NNW,16.1,-,N/A,,Clear,340,2012-10-14 06:53:00
2:53 AM,55.0,30.9,40,29.83,10.0,NNW,18.4,25.3,N/A,,Clear,330,2012-10-14 07:53:00
3:53 AM,55.0,33.1,43,29.86,10.0,NNW,20.7,-,N/A,,Clear,340,2012-10-14 08:53:00
4:53 AM,54.0,34.0,47,29.88,10.0,NNW,17.3,-,N/A,,Partly Cloudy,330,2012-10-14 09:53:00
5:53 AM,52.0,34.0,50,29.90,10.0,NNW,12.7,-,N/A,,Clear,330,2012-10-14 10:53:00
6:53 AM,50.0,34.0,54,29.95,10.0,NW,15.0,-,N/A,,Clear,310,2012-10-14 11:53:00
7:53 AM,50.0,34.0,54,29.98,10.0,NW,16.1,-,N/A,,Clear,320,2012-10-14 12:53:00
8:53 AM,51.1,34.0,52,29.99,10.0,NW,15.0,-,N/A,,Clear,310,2012-10-14 13:53:00
9:53 AM,55.9,35.1,45,30.01,10.0,NW,17.3,-,N/A,,Clear,310,2012-10-14 14:53:00
10:53 AM,63.0,37.0,38,30.00,10.0,NW,18.4,27.6,N/A,,Clear,320,2012-10-14 15:53:00
11:53 AM,66.9,37.0,33,29.99,10.0,NNW,23.0,27.6,N/A,,Clear,330,2012-10-14 16:53:00
12:53 PM,69.1,37.9,32,29.99,10.0,NW,20.7,33.4,N/A,,Clear,320,2012-10-14 17:53:00
1:53 PM,73.0,37.0,27,29.97,10.0,NW,20.7,27.6,N/A,,Partly Cloudy,320,2012-10-14 18:53:00
2:53 PM,73.4,33.8,23,29.99,10.0,NNW,21.9,28.8,N/A,,Partly Cloudy,330,2012-10-14 19:53:00
3:53 PM,73.0,32.0,22,29.95,10.0,NNW,25.3,34.5,N/A,,Clear,330,2012-10-14 20:53:00
4:53 PM,72.0,30.9,22,29.96,10.0,NW,26.5,31.1,N/A,,Partly Cloudy,310,2012-10-14 21:53:00
5:53 PM,71.1,32.0,24,29.98,10.0,NNW,15.0,24.2,N/A,,Mostly Cloudy,330,2012-10-14 22:53:00
6:53 PM,64.9,32.0,29,29.99,10.0,NNW,8.1,-,N/A,,Mostly Cloudy,330,2012-10-14 23:53:00
7:53 PM,55.0,30.9,40,30.01,10.0,North,4.6,-,N/A,,Clear,360,2012-10-15 00:53:00
8:53 PM,51.1,30.9,46,30.02,10.0,Calm,Calm,-,N/A,,Clear,0,2012-10-15 01:53:00
9:53 PM,44.1,28.9,55,30.04,10.0,Calm,Calm,-,N/A,,Clear,0,2012-10-15 02:53:00
10:53 PM,37.9,27.0,65,30.04,10.0,Calm,Calm,-,N/A,,Clear,0,2012-10-15 03:53:00
11:53 PM,41.0,28.9,62,30.03,10.0,Calm,Calm,-,N/A,,Clear,0,2012-10-15 04:53:00